Wind_Speed
50 53 57 60 62 68 66 71 74 83 87 84 81 80 75 72 70 69 70 68 61 59 58 59 59 57 56 52 51 54 52 47 42 37 44 46 50 48 42 34 24 21 20 18 14 13 12 11 11
45 48 51 53 57 66 67 68 74 77 85 88 84 84 80 78 73 72 70 73 70 64 63 62 63 63 61 61 59 56 53 49 45 47 46 49 48 46 45 43 37 27 22 22 17 16 17 15 12
43 42 45 48 50 57 60 65 67 73 79 88 87 85 82 84 81 75 75 74 73 72 67 68 68 67 65 64 61 62 58 59 55 53 51 51 46 50 42 43 50 40 27 22 25 19 18 18 16
39 38 40 42 45 47 52 58 69 71 73 78 88 89 87 86 83 83 78 76 74 77 74 71 70 69 68 67 63 62 60 61 61 59 53 49 53 52 47 43 46 43 32 24 27 29 21 21 18
36 39 41 42 44 47 49 54 59 64 66 70 76 83 87 85 83 86 83 80 78 78 76 74 73 70 71 68 65 64 62 65 61 57 57 56 49 49 51 45 37 46 40 33 30 29 29 25 23
40 41 39 38 38 42 46 48 53 57 58 62 69 75 80 84 88 87 85 85 82 79 77 75 74 73 70 64 67 67 65 64 60 59 54 56 50 48 48 47 44 44 42 39 38 34 27 29 32
33 33 34 35 36 39 43 45 47 52 57 59 63 64 69 75 82 86 87 88 89 85 84 83 80 77 74 72 70 69 66 66 62 62 62 59 56 54 48 50 51 49 51 45 42 39 39 34 35
30 29 29 28 29 32 35 37 39 42 46 51 55 60 63 68 76 82 86 89 90 91 90 88 87 83 82 82 81 82 79 76 74 73 68 63 63 56 55 54 59 52 52 56 52 48 46 48 41
28 27 26 26 27 28 29 32 33 34 37 39 41 47 50 59 64 72 82 87 89 91 94 95 93 90 88 87 87 87 83 81 80 83 74 69 68 69 67 63 62 59 60 62 58 56 56 51 49
28 28 27 27 27 27 27 29 31 32 35 37 38 38 38 40 45 61 70 79 87 91 91 94 96 96 94 93 92 91 89 84 78 64 75 82 82 84 77 77 71 65 65 63 61 54 58 58 57
31 31 30 27 28 28 28 30 31 30 33 37 38 40 44 44 45 45 47 63 74 84 90 96 96 96 97 97 96 95 92 92 90 93 89 80 78 82 87 81 76 75 71 64 65 64 60 66 61
34 33 31 31 29 25 26 27 28 29 31 33 36 38 43 46 50 54 55 54 54 62 81 91 95 96 97 100 100 99 98 98 97 96 92 85 87 84 75 78 84 88 82 77 75 65 65 64 60
36 36 33 33 31 28 27 29 30 29 30 34 35 37 38 41 43 47 51 57 61 63 66 67 78 92 97 98 98 103 101 100 100 94 94 90 88 89 87 80 81 84 90 88 87 79 73 73 69
38 38 36 36 34 33 31 31 29 33 33 34 36 34 35 39 42 44 48 53 59 65 69 74 76 75 81 98 101 101 101 104 104 100 99 101 99 100 101 98 104 98 93 90 88 87 88 82 74
41 39 40 39 36 36 35 33 34 38 38 40 38 39 43 43 44 48 51 56 60 63 67 75 81 84 84 84 87 102 105 105 105 104 106 103 103 103 104 106 105 103 100 96 93 90 88 87 81
42 39 39 40 37 37 36 38 40 41 42 42 45 46 45 45 45 51 65 68 69 70 75 81 85 86 87 88 90 92 94 105 108 112 109 112 110 106 103 105 106 103 89 103 100 100 95 96 92
42 40 41 42 38 39 39 40 43 43 46 47 49 49 49 55 56 64 73 62 63 70 77 82 88 85 82 86 90 94 97 101 106 113 110 118 115 115 112 105 103 99 95 95 97 98 96 94 94
41 39 42 43 42 42 42 42 44 46 50 52 54 55 56 59 62 72 71 65 64 66 63 71 82 88 91 91 91 92 96 102 106 108 113 118 118 120 118 118 111 110 108 106 98 95 95 93 97
37 39 42 45 45 44 42 47 48 50 53 55 57 60 65 65 71 76 72 66 64 65 62 62 67 75 81 86 89 95 97 96 98 105 111 113 117 124 122 120 120 122 118 115 110 107 111 106 101
39 41 41 43 44 43 44 48 51 55 57 60 63 65 67 69 75 78 75 60 53 51 51 54 61 66 71 76 83 90 97 102 106 107 111 115 116 117 119 127 125 125 126 125 121 118 117 114 106
39 40 40 43 43 45 47 51 55 59 62 64 69 71 74 77 85 80 63 52 49 47 51 54 58 62 65 68 73 78 84 91 100 108 110 115 121 123 120 118 120 125 123 119 122 125 122 115 114
39 42 42 43 47 48 52 53 58 62 66 69 72 75 79 80 85 78 61 56 53 51 53 56 58 60 61 64 67 72 78 83 90 94 102 109 118 123 129 128 122 120 119 116 117 116 121 127 118
41 44 45 47 50 53 57 57 61 65 69 73 76 79 83 87 80 74 63 60 59 54 53 55 55 57 58 58 61 65 69 75 82 89 95 102 107 111 121 129 133 126 122 116 112 110 114 118 116
45 48 50 51 54 57 59 62 64 67 73 76 77 80 81 87 82 71 61 58 60 59 56 55 56 59 60 62 62 64 69 73 77 84 91 98 103 106 109 113 122 130 129 123 116 115 113 111 110
47 51 53 53 56 58 62 64 66 69 75 77 79 81 81 79 81 68 60 59 60 61 63 60 59 60 61 64 65 65 68 71 76 83 91 98 96 96 100 107 107 116 126 131 126 121 114 111 108
46 50 55 55 57 58 62 64 66 71 75 77 80 82 87 74 78 66 59 59 59 58 60 61 59 59 63 64 65 64 67 68 73 82 85 89 87 84 87 91 100 103 113 125 133 127 120 115 121
48 47 52 56 59 59 60 67 67 69 75 77 80 84 83 76 77 62 59 60 59 57 57 55 55 58 61 61 59 61 61 63 70 72 73 74 76 75 77 77 81 91 98 113 127 133 129 123 120
47 48 49 51 53 57 59 64 66 69 73 76 81 80 82 80 66 59 56 57 58 57 55 53 51 49 55 57 55 58 57 57 60 61 61 61 62 63 69 70 69 75 89 103 115 123 131 129 123
48 50 52 53 56 58 58 65 64 66 72 75 76 80 77 71 59 54 53 54 54 56 53 53 51 51 53 54 54 56 52 53 51 52 50 50 51 53 58 60 60 64 75 93 106 114 119 125 123
47 49 51 51 53 57 57 61 62 64 70 71 75 75 73 64 57 55 52 52 53 57 53 52 52 50 50 53 54 55 51 48 45 45 42 41 42 44 48 51 54 57 67 83 96 105 113 117 121
Wind_Direction
245 246 245 245 249 247 245 241 241 238 240 243 245 248 249 251 250 251 251 251 253 253 254 254 254 257 260 260 267 273 276 278 279 277 283 288 290 296 295 295 277 275 274 267 258 260 260 254 252
246 246 245 245 247 247 247 246 241 240 240 242 244 245 249 251 252 250 252 254 253 254 255 255 257 257 258 261 264 269 271 269 271 277 278 285 288 293 294 294 288 274 263 263 249 254 256 260 260
249 250 250 244 244 246 248 246 249 247 243 241 242 246 248 248 252 251 252 254 256 255 257 259 259 259 259 259 264 265 265 268 271 273 275 276 281 284 285 284 288 283 260 257 251 246 251 254 255
253 252 257 258 251 250 249 247 247 248 246 245 243 245 249 248 249 251 250 252 252 255 256 259 260 259 260 263 261 263 262 264 267 270 270 268 280 277 283 272 278 279 267 262 252 254 243 248 258
262 263 264 259 260 256 252 248 246 246 247 247 246 246 244 246 248 249 249 250 251 254 258 260 259 260 262 261 260 254 258 260 264 263 263 267 269 270 277 268 261 276 274 263 275 258 253 243 253
265 266 268 266 262 257 255 253 250 248 248 247 246 246 245 244 246 248 250 251 250 251 252 253 254 255 254 251 247 252 258 256 255 262 257 258 264 261 267 253 253 265 269 270 271 274 261 265 255
269 270 271 266 261 257 254 253 252 250 249 248 248 247 245 244 245 246 249 250 251 250 250 250 250 252 249 244 243 247 248 250 254 255 260 257 261 259 253 250 247 255 267 269 268 267 267 266 271
268 268 269 273 269 264 263 260 255 251 253 252 250 250 248 246 245 246 248 249 249 249 249 250 250 248 249 250 251 254 253 249 252 258 253 252 256 251 256 253 245 254 256 268 270 268 270 272 268
268 271 272 275 281 276 273 272 271 268 264 258 255 252 250 248 248 248 246 247 248 249 249 249 248 248 248 248 250 251 252 254 252 251 250 252 254 255 254 253 253 246 259 263 262 265 269 264 264
269 268 271 273 278 278 280 278 275 276 280 280 279 275 260 258 253 250 248 247 247 248 250 249 249 248 247 248 249 250 251 250 249 248 252 254 258 261 257 256 253 237 253 253 257 254 260 258 262
266 265 267 273 276 280 283 282 279 277 276 271 273 274 273 276 273 269 263 255 252 251 250 251 249 247 247 247 247 248 249 251 248 253 257 259 257 258 260 258 252 246 251 245 250 260 256 256 263
264 266 269 273 276 281 283 281 282 285 284 281 279 276 271 273 274 274 276 275 265 263 253 252 252 250 248 246 246 247 247 249 250 251 253 250 252 255 248 254 253 252 249 250 254 253 250 247 258
264 265 268 271 275 281 281 283 287 286 286 288 285 282 279 277 276 274 275 274 274 272 267 263 258 254 252 250 249 248 246 247 248 248 249 246 245 247 254 250 247 249 257 254 252 252 248 248 255
261 262 265 269 276 280 280 282 288 293 290 299 286 283 285 284 278 271 269 269 270 268 268 267 263 260 258 252 249 248 248 247 246 246 244 247 247 247 251 251 253 257 250 254 252 249 255 248 251
259 262 264 270 275 281 279 280 288 297 299 306 302 295 295 296 290 285 282 278 269 264 266 261 259 255 257 254 254 250 247 245 245 246 244 241 245 248 249 249 254 254 252 250 251 255 251 247 248
258 262 265 270 275 275 276 283 287 296 298 303 304 298 300 300 302 298 298 294 275 271 266 260 257 256 255 254 254 253 251 249 247 243 242 242 243 243 242 246 250 248 248 252 252 254 255 251 253
256 261 263 269 274 275 278 281 286 294 295 300 300 302 304 301 298 299 302 294 281 276 274 266 260 256 255 254 254 252 252 251 250 247 245 242 241 241 239 239 241 246 248 244 251 251 255 246 252
259 262 265 270 272 276 277 282 288 292 295 298 302 305 304 304 303 308 302 297 291 283 273 267 264 260 259 258 258 258 258 255 251 250 248 246 243 242 241 240 238 239 244 245 245 246 244 246 247
259 260 265 268 271 275 279 285 291 291 294 297 303 306 305 305 307 314 312 306 293 284 274 269 264 263 261 261 260 257 258 256 255 254 253 249 246 243 241 241 241 240 239 244 247 247 250 248 248
259 263 266 266 270 273 279 286 289 292 294 300 304 306 308 309 315 318 316 303 291 281 274 270 266 262 259 257 254 252 251 249 248 247 247 249 250 247 243 241 241 241 242 243 244 247 249 251 250
262 264 266 267 268 274 282 286 289 293 296 302 304 308 311 314 319 318 314 307 302 291 283 278 273 271 268 266 263 260 257 255 253 249 249 248 246 247 247 245 240 240 241 242 244 246 248 248 250
265 265 263 263 269 275 280 282 288 295 298 302 306 309 312 316 320 325 319 315 305 302 294 286 281 276 273 270 269 266 263 260 255 252 252 251 248 245 245 245 245 243 241 240 242 242 245 246 248
267 264 262 267 271 278 282 285 290 297 300 304 308 310 314 321 324 322 319 315 310 303 297 290 286 281 278 275 273 269 265 263 261 259 254 251 249 250 246 243 243 243 244 242 241 239 242 245 247
263 263 264 268 272 279 283 289 294 298 302 305 309 311 316 320 323 321 317 312 309 306 302 295 290 286 282 279 276 272 268 265 263 261 259 256 252 248 247 245 242 242 241 242 241 240 240 242 244
264 264 264 268 273 280 286 293 295 298 302 305 308 312 316 321 323 320 316 314 312 308 303 300 295 292 289 287 285 281 275 269 266 263 260 259 258 254 248 246 243 239 238 238 239 238 239 238 243
265 267 265 266 274 280 286 289 294 297 301 304 310 314 318 323 324 319 317 316 314 309 303 301 299 299 295 292 289 287 284 278 272 267 265 266 265 260 256 248 245 242 236 236 236 235 233 236 238
265 267 266 267 271 276 284 289 293 298 303 309 312 316 321 323 322 317 317 315 315 316 311 307 305 301 298 298 296 297 292 288 282 276 270 267 265 260 256 252 245 241 239 234 234 234 234 234 236
264 267 269 271 273 279 286 290 296 301 305 309 313 318 321 321 321 316 313 315 318 317 319 317 307 300 296 300 304 306 304 295 289 282 275 269 264 257 251 251 246 238 236 234 232 233 232 234 233
264 267 270 274 277 281 285 290 297 303 306 311 315 320 322 323 318 320 318 316 317 317 319 317 313 306 303 308 312 313 313 307 296 288 280 271 264 256 250 247 245 239 232 232 230 230 230 232 233
264 266 268 275 280 284 291 292 300 305 308 313 317 321 328 328 322 324 320 318 318 318 323 321 320 314 310 314 317 320 321 316 306 293 283 272 261 255 250 246 241 237 230 228 228 227 227 227 229
Height
10714 10717 10720 10723 10726 10726 10730 10734 10737 10743 10747 10750 10755 10758 10763 10764 10769 10772 10775 10779 10784 10786 10789 10791 10793 10798 10800 10802 10803 10805 10809 10810 10811 10812 10814 10815 10815 10818 10820 10822 10821 10821 10820 10818 10816 10815 10813 10812 10811
10705 10707 10710 10712 10713 10715 10719 10721 10723 10729 10735 10738 10744 10749 10753 10755 10759 10763 10766 10769 10773 10777 10779 10783 10786 10788 10792 10794 10797 10799 10801 10805 10805 10805 10807 10808 10809 10810 10812 10814 10817 10817 10815 10815 10814 10812 10811 10810 10809
10695 10697 10699 10702 10705 10706 10706 10709 10711 10716 10723 10726 10732 10737 10741 10744 10749 10753 10757 10760 10763 10766 10770 10773 10776 10780 10783 10786 10788 10791 10791 10795 10797 10798 10799 10800 10803 10803 10806 10806 10807 10812 10811 10810 10810 10809 10808 10807 10806
10686 10688 10691 10692 10694 10696 10696 10697 10700 10705 10710 10714 10718 10725 10728 10732 10735 10738 10744 10747 10752 10756 10760 10762 10765 10771 10774 10777 10778 10781 10782 10782 10788 10790 10791 10792 10795 10797 10798 10800 10800 10802 10805 10805 10805 10804 10803 10803 10803
10678 10679 10680 10683 10683 10684 10686 10689 10692 10695 10698 10702 10705 10709 10715 10719 10722 10724 10729 10735 10740 10745 10749 10754 10756 10758 10763 10766 10768 10770 10770 10771 10775 10779 10781 10783 10785 10788 10791 10791 10793 10794 10796 10797 10800 10800 10799 10798 10798
10672 10672 10672 10674 10676 10676 10677 10680 10683 10685 10688 10689 10691 10697 10702 10704 10709 10711 10715 10720 10725 10732 10737 10741 10743 10747 10750 10752 10755 10757 10759 10760 10763 10767 10770 10773 10775 10777 10781 10783 10784 10785 10787 10788 10790 10792 10793 10793 10794
10664 10665 10665 10665 10667 10668 10669 10671 10673 10675 10678 10679 10682 10687 10689 10692 10693 10695 10700 10705 10709 10715 10720 10725 10730 10734 10737 10738 10741 10742 10746 10749 10751 10755 10759 10763 10766 10767 10769 10773 10774 10776 10777 10780 10781 10783 10784 10785 10788
10657 10659 10659 10659 10660 10662 10662 10663 10665 10667 10668 10669 10672 10676 10678 10678 10679 10681 10685 10688 10692 10695 10703 10710 10716 10720 10723 10724 10727 10729 10732 10737 10739 10740 10744 10749 10753 10757 10760 10763 10764 10764 10766 10769 10772 10774 10775 10777 10778
10651 10652 10653 10654 10654 10655 10656 10657 10658 10659 10659 10661 10662 10663 10666 10668 10669 10669 10671 10674 10677 10679 10684 10690 10697 10701 10706 10708 10709 10711 10718 10723 10726 10725 10727 10734 10738 10741 10745 10748 10752 10754 10755 10756 10760 10762 10764 10766 10768
10645 10646 10647 10648 10648 10649 10650 10651 10651 10652 10652 10652 10651 10651 10653 10655 10656 10657 10658 10659 10661 10663 10666 10672 10676 10683 10686 10691 10694 10695 10701 10707 10713 10697 10714 10722 10723 10723 10726 10733 10736 10739 10742 10744 10746 10748 10753 10755 10756
10639 10639 10640 10642 10643 10644 10645 10644 10644 10646 10646 10646 10645 10645 10645 10644 10644 10644 10646 10647 10649 10648 10651 10653 10656 10661 10665 10671 10675 10679 10682 10685 10691 10692 10699 10707 10705 10703 10705 10713 10718 10722 10727 10730 10733 10736 10740 10741 10744
10631 10632 10634 10634 10636 10638 10638 10637 10637 10638 10638 10637 10636 10637 10637 10636 10636 10636 10635 10635 10635 10635 10636 10635 10636 10640 10645 10648 10653 10660 10663 10667 10670 10676 10680 10687 10684 10679 10685 10690 10697 10704 10710 10714 10719 10723 10725 10726 10730
10624 10625 10626 10627 10628 10629 10631 10629 10629 10629 10628 10628 10628 10628 10628 10627 10626 10624 10623 10620 10617 10617 10616 10617 10619 10620 10624 10629 10634 10639 10644 10648 10653 10657 10658 10665 10662 10663 10661 10668 10674 10682 10688 10698 10701 10708 10710 10712 10715
10616 10617 10618 10619 10621 10621 10623 10622 10621 10621 10620 10619 10618 10617 10616 10614 10612 10610 10607 10605 10603 10599 10597 10595 10595 10597 10600 10603 10608 10614 10620 10627 10632 10637 10638 10640 10645 10646 10648 10649 10649 10661 10668 10673 10679 10687 10693 10696 10698
10608 10610 10610 10611 10613 10614 10614 10614 10613 10612 10610 10610 10609 10606 10604 10602 10598 10595 10594 10590 10584 10579 10575 10573 10571 10569 10573 10578 10582 10587 10592 10600 10610 10615 10617 10620 10623 10624 10630 10629 10626 10631 10645 10649 10657 10665 10673 10680 10682
10601 10603 10604 10604 10606 10606 10606 10605 10604 10603 10601 10601 10599 10596 10593 10589 10585 10581 10575 10567 10562 10556 10553 10548 10547 10549 10550 10552 10556 10560 10563 10569 10577 10587 10594 10598 10601 10605 10607 10609 10610 10611 10618 10623 10633 10642 10649 10657 10664
10593 10596 10597 10597 10599 10598 10598 10598 10595 10595 10593 10590 10588 10585 10582 10578 10573 10567 10558 10547 10538 10530 10524 10521 10525 10527 10530 10531 10533 10535 10538 10541 10544 10553 10560 10570 10574 10580 10586 10589 10593 10592 10596 10594 10605 10616 10624 10635 10643
10586 10588 10588 10589 10590 10590 10589 10589 10588 10586 10581 10578 10574 10571 10567 10563 10557 10547 10535 10523 10513 10506 10502 10500 10501 10503 10507 10512 10512 10514 10517 10519 10519 10521 10526 10535 10545 10552 10559 10567 10572 10576 10573 10580 10586 10589 10601 10614 10623
10578 10579 10580 10580 10581 10581 10581 10577 10576 10576 10573 10568 10564 10559 10553 10546 10539 10528 10511 10498 10490 10487 10483 10482 10480 10479 10482 10482 10483 10487 10489 10489 10491 10493 10495 10499 10506 10519 10529 10537 10546 10551 10557 10560 10562 10570 10574 10588 10599
10569 10570 10571 10572 10572 10572 10573 10568 10566 10563 10560 10555 10550 10544 10538 10529 10519 10506 10491 10480 10474 10469 10465 10461 10457 10454 10452 10452 10452 10453 10452 10454 10456 10456 10460 10465 10471 10478 10489 10504 10513 10521 10530 10540 10546 10551 10555 10560 10576
10560 10561 10562 10562 10563 10564 10562 10559 10554 10551 10548 10542 10536 10529 10520 10512 10500 10488 10473 10462 10455 10451 10447 10441 10435 10433 10429 10428 10428 10428 10427 10428 10426 10426 10432 10435 10438 10443 10452 10463 10476 10487 10498 10512 10519 10528 10533 10539 10553
10551 10552 10553 10554 10554 10553 10552 10554 10544 10540 10534 10529 10523 10515 10506 10496 10483 10467 10456 10446 10441 10434 10430 10424 10418 10413 10410 10407 10404 10401 10399 10398 10395 10397 10398 10400 10404 10411 10418 10427 10438 10452 10465 10480 10489 10502 10508 10512 10533
10542 10543 10544 10545 10544 10542 10539 10540 10534 10530 10523 10516 10508 10499 10490 10479 10466 10454 10442 10433 10425 10419 10414 10408 10401 10395 10391 10386 10383 10378 10374 10370 10366 10363 10365 10363 10367 10373 10384 10392 10402 10419 10432 10450 10462 10474 10482 10489 10509
10533 10534 10535 10535 10533 10531 10527 10526 10524 10518 10509 10503 10497 10488 10479 10468 10453 10441 10429 10421 10410 10402 10396 10391 10384 10376 10373 10368 10362 10358 10353 10347 10342 10334 10331 10329 10330 10337 10345 10354 10368 10384 10403 10419 10435 10445 10458 10471 10485
10523 10524 10525 10526 10523 10521 10517 10514 10512 10506 10498 10492 10485 10477 10468 10454 10440 10427 10417 10407 10396 10386 10378 10372 10366 10359 10353 10346 10341 10336 10330 10324 10316 10307 10299 10293 10297 10305 10314 10320 10332 10352 10369 10387 10404 10419 10438 10452 10465
10514 10515 10515 10516 10514 10512 10506 10500 10501 10494 10488 10481 10473 10462 10453 10439 10426 10414 10404 10395 10385 10376 10366 10358 10351 10342 10335 10328 10321 10313 10305 10298 10288 10276 10273 10269 10269 10274 10279 10291 10301 10318 10338 10355 10372 10393 10413 10428 10437
10503 10504 10505 10506 10505 10504 10499 10486 10489 10483 10474 10466 10459 10450 10438 10426 10414 10401 10390 10381 10373 10363 10352 10343 10334 10325 10318 10309 10301 10290 10280 10271 10257 10248 10245 10244 10242 10246 10251 10260 10275 10290 10308 10325 10339 10362 10386 10406 10419
10493 10493 10494 10494 10495 10493 10490 10474 10477 10473 10464 10457 10448 10440 10428 10415 10402 10390 10380 10370 10360 10348 10340 10329 10320 10312 10302 10291 10282 10270 10260 10246 10235 10224 10219 10218 10218 10221 10227 10236 10249 10264 10278 10295 10313 10335 10359 10378 10402
10482 10483 10483 10483 10482 10480 10482 10466 10467 10461 10454 10447 10438 10429 10416 10402 10391 10380 10369 10360 10351 10339 10330 10317 10307 10296 10284 10274 10265 10253 10241 10225 10214 10204 10199 10196 10196 10200 10207 10215 10228 10241 10253 10268 10286 10307 10331 10354 10376
10471 10472 10473 10473 10472 10467 10468 10461 10456 10448 10441 10434 10426 10416 10405 10391 10379 10369 10360 10351 10341 10329 10318 10306 10294 10282 10271 10262 10251 10239 10226 10210 10197 10189 10184 10181 10180 10184 10191 10199 10208 10218 10231 10244 10261 10282 10303 10328 10350